| time (UTC) | temp F | wind direction | speed knots | gust knots | rain 1hr in | rain 24hr in | rain mn in | humidity % | barometer mb |
| 20260505163010 | 50 | 308 | 0.0 | 0.0 | 0.01 | 0.56 | 0.54 | 88 | 1007.3 |
| 20260505161509 | 50 | 348 | 0.0 | 0.9 | 0.02 | 0.56 | 0.54 | 88 | 1007.1 |
| 20260505153011 | 49 | 355 | 0.0 | 1.7 | 0.16 | 0.55 | 0.53 | 91 | 1006.8 |
| 20260505151507 | 49 | 23 | 0.0 | 3.5 | 0.15 | 0.54 | 0.52 | 90 | 1006.8 |
| 20260505140124 | 50 | 291 | 0.0 | 7.0 | 0.05 | 0.39 | 0.37 | 89 | 1007.5 |
| 20260505124547 | 53 | 305 | 0.0 | 2.6 | 0.03 | 0.32 | 0.30 | 88 | 1006.3 |
| 20260505123105 | 54 | 325 | 0.0 | 3.5 | 0.02 | 0.31 | 0.28 | 86 | 1006.3 |
| 20260505121541 | 55 | 319 | 0.0 | 0.0 | 0.01 | 0.30 | 0.28 | 86 | 1006.2 |
| 20260505120046 | 56 | 342 | 0.0 | 0.0 | 0.01 | 0.30 | 0.28 | 89 | 1005.9 |
| 20260505114546 | 57 | 317 | 0.0 | 0.0 | 0.00 | 0.28 | 0.27 | 91 | 1006.2 |
| 20260505113033 | 57 | 292 | 0.0 | 0.0 | 0.00 | 0.28 | 0.27 | 92 | 1006.0 |
| 20260505111532 | 57 | 273 | 0.0 | 0.0 | 0.00 | 0.28 | 0.27 | 93 | 1005.7 |
| 20260505101523 | 57 | 231 | 0.0 | 0.0 | 0.00 | 0.28 | 0.27 | 92 | 1004.4 |
| 20260505100030 | 57 | 231 | 0.0 | 0.0 | 0.00 | 0.31 | 0.27 | 91 | 1004.6 |
| 20260505094522 | 57 | 229 | 0.0 | 0.0 | 0.00 | 0.31 | 0.27 | 92 | 1004.5 |
| 20260505093022 | 57 | 131 | 0.0 | 0.0 | 0.01 | 0.31 | 0.27 | 92 | 1003.3 |
| 20260505091529 | 57 | 136 | 0.0 | 0.0 | 0.04 | 0.31 | 0.27 | 92 | 1003.7 |
| 20260505090036 | 57 | 139 | 0.0 | 0.0 | 0.06 | 0.39 | 0.27 | 91 | 1004.2 |
| 20260505084523 | 58 | 223 | 0.0 | 0.0 | 0.08 | 0.39 | 0.27 | 90 | 1003.7 |
| 20260505083018 | 58 | 214 | 0.0 | 0.0 | 0.10 | 0.38 | 0.26 | 89 | 1003.7 |
| 20260505081524 | 58 | 162 | 0.0 | 7.0 | 0.13 | 0.35 | 0.23 | 89 | 1004.6 |
| 20260505080038 | 58 | 296 | 0.0 | 0.0 | 0.13 | 0.34 | 0.21 | 89 | 1005.4 |
| 20260505074515 | 58 | 279 | 0.0 | 0.0 | 0.15 | 0.32 | 0.19 | 88 | 1004.9 |
| 20260505073016 | 58 | 277 | 0.0 | 0.0 | 0.16 | 0.28 | 0.16 | 87 | 1005.2 |
| 20260505071512 | 59 | 278 | 0.0 | 0.0 | 0.10 | 0.23 | 0.10 | 83 | 1005.0 |
| 20260505070008 | 60 | 248 | 0.0 | 0.0 | 0.08 | 0.21 | 0.08 | 79 | 1004.9 |
| 20260505064502 | 64 | 323 | 0.0 | 12.2 | 0.04 | 0.17 | 0.04 | 72 | 1005.5 |
| 20260505063102 | 68 | 201 | 2.6 | 11.3 | 0.00 | 0.13 | 0.00 | 64 | 1004.2 |
| 20260505061600 | 67 | 199 | 1.7 | 14.8 | 0.00 | 0.13 | 0.00 | 64 | 1002.7 |
| 20260505060052 | 67 | 163 | 4.3 | 9.6 | 0.00 | 0.13 | 0.00 | 63 | 1002.4 |
| 20260505054550 | 68 | 227 | 1.7 | 14.8 | 0.00 | 0.13 | 0.00 | 62 | 1002.4 |
| 20260505053047 | 68 | 235 | 3.5 | 10.4 | 0.00 | 0.13 | 0.00 | 62 | 1001.9 |
| 20260505051544 | 68 | 223 | 0.9 | 18.2 | 0.00 | 0.13 | 0.00 | 61 | 1001.7 |
| 20260505050118 | 68 | 200 | 0.0 | 13.9 | 0.00 | 0.13 | 0.00 | 61 | 1001.7 |
| 20260505041551 | 68 | 182 | 0.9 | 12.2 | 0.00 | 0.13 | 0.13 | 60 | 1001.4 |
| 20260505040051 | 68 | 215 | 0.9 | 8.7 | 0.00 | 0.13 | 0.13 | 60 | 1001.7 |
| 20260505034538 | 68 | 243 | 0.0 | 12.2 | 0.00 | 0.13 | 0.13 | 60 | 1001.6 |
| 20260505033042 | 69 | 219 | 1.7 | 14.8 | 0.00 | 0.13 | 0.13 | 59 | 1001.7 |
| 20260505031544 | 69 | 110 | 2.6 | 13.9 | 0.00 | 0.13 | 0.13 | 58 | 1001.8 |
| 20260505030040 | 69 | 190 | 0.0 | 2.6 | 0.00 | 0.13 | 0.13 | 58 | 1001.5 |
| 20260505024536 | 70 | 192 | 0.0 | 6.1 | 0.00 | 0.13 | 0.13 | 57 | 1001.6 |
| 20260505023042 | 69 | 190 | 0.0 | 11.3 | 0.00 | 0.13 | 0.13 | 58 | 1001.7 |
| 20260505021536 | 69 | 202 | 0.9 | 7.0 | 0.00 | 0.13 | 0.13 | 58 | 1001.7 |
| 20260505020036 | 70 | 217 | 1.7 | 15.6 | 0.02 | 0.13 | 0.13 | 56 | 1001.7 |
| 20260505014538 | 71 | 217 | 0.9 | 16.5 | 0.02 | 0.13 | 0.13 | 54 | 1001.2 |
| 20260505013031 | 70 | 222 | 5.2 | 14.8 | 0.02 | 0.13 | 0.13 | 55 | 1000.9 |
| 20260505011532 | 70 | 202 | 1.7 | 13.9 | 0.02 | 0.13 | 0.13 | 61 | 1000.7 |
| 20260505010028 | 71 | 225 | 0.0 | 7.0 | 0.00 | 0.11 | 0.11 | 52 | 1000.4 |
| 20260505004535 | 71 | 240 | 0.0 | 9.6 | 0.00 | 0.11 | 0.11 | 51 | 1000.7 |
| 20260505003024 | 71 | 211 | 0.0 | 2.6 | 0.00 | 0.11 | 0.11 | 51 | 1001.0 |
| 20260505001524 | 72 | 171 | 0.0 | 5.2 | 0.00 | 0.11 | 0.11 | 49 | 1000.9 |
| 20260505000030 | 72 | 192 | 0.0 | 10.4 | 0.00 | 0.11 | 0.11 | 50 | 1000.8 |
| 20260504234522 | 73 | 205 | 0.0 | 6.1 | 0.00 | 0.11 | 0.11 | 50 | 1000.9 |
| 20260504233021 | 73 | 257 | 0.0 | 14.8 | 0.00 | 0.11 | 0.11 | 49 | 1001.2 |
| 20260504231519 | 74 | 197 | 3.5 | 13.9 | 0.00 | 0.11 | 0.11 | 47 | 1001.4 |
| 20260504230020 | 74 | 219 | 4.3 | 9.6 | 0.00 | 0.11 | 0.11 | 47 | 1001.4 |
| 20260504224519 | 74 | 203 | 1.7 | 11.3 | 0.00 | 0.11 | 0.11 | 48 | 1001.3 |
| 20260504223018 | 75 | 179 | 0.0 | 10.4 | 0.00 | 0.11 | 0.11 | 46 | 1001.3 |
| 20260504221519 | 75 | 180 | 4.3 | 15.6 | 0.00 | 0.11 | 0.11 | 49 | 1001.5 |
| 20260504220016 | 75 | 171 | 4.3 | 18.2 | 0.00 | 0.11 | 0.11 | 49 | 1001.6 |
| 20260504214514 | 74 | 171 | 1.7 | 18.2 | 0.00 | 0.11 | 0.11 | 52 | 1002.1 |
| 20260504213034 | 75 | 227 | 2.6 | 12.2 | 0.00 | 0.11 | 0.11 | 55 | 1001.9 |
| 20260504211515 | 74 | 184 | 0.0 | 3.5 | 0.00 | 0.11 | 0.11 | 58 | 1001.9 |
| 20260504210011 | 73 | 173 | 0.0 | 4.3 | 0.00 | 0.11 | 0.11 | 60 | 1001.8 |
| 20260504204505 | 72 | 189 | 0.0 | 6.1 | 0.00 | 0.11 | 0.11 | 60 | 1002.2 |
| 20260504203008 | 73 | 171 | 3.5 | 10.4 | 0.00 | 0.11 | 0.11 | 58 | 1002.7 |
| 20260504201505 | 73 | 219 | 3.5 | 13.9 | 0.00 | 0.11 | 0.11 | 59 | 1003.1 |
| 20260504200003 | 72 | 201 | 5.2 | 16.5 | 0.00 | 0.11 | 0.11 | 58 | 1003.5 |
| 20260504194503 | 71 | 219 | 7.8 | 14.8 | 0.00 | 0.11 | 0.11 | 60 | 1003.7 |
| 20260504193002 | 69 | 163 | 4.3 | 12.2 | 0.00 | 0.11 | 0.11 | 62 | 1002.8 |
| 20260504191603 | 70 | 215 | 4.3 | 14.8 | 0.00 | 0.11 | 0.11 | 61 | 1003.5 |
| 20260504190117 | 70 | 191 | 0.9 | 5.2 | 0.00 | 0.11 | 0.11 | 62 | 1003.3 |
| 20260504184607 | 71 | 194 | 3.5 | 10.4 | 0.00 | 0.11 | 0.11 | 60 | 1003.8 |
| 20260504183057 | 72 | 213 | 4.3 | 13.0 | 0.00 | 0.11 | 0.11 | 59 | 1004.0 |
| 20260504181555 | 73 | 221 | 3.5 | 7.8 | 0.00 | 0.11 | 0.11 | 62 | 1004.2 |
| 20260504180053 | 72 | 210 | 0.0 | 13.0 | 0.00 | 0.11 | 0.11 | 62 | 1004.0 |
| 20260504174600 | 72 | 206 | 4.3 | 11.3 | 0.00 | 0.11 | 0.11 | 62 | 1004.5 |
| 20260504173054 | 71 | 196 | 0.9 | 7.8 | 0.00 | 0.11 | 0.11 | 63 | 1004.3 |
| 20260504171548 | 71 | 225 | 0.0 | 9.6 | 0.00 | 0.11 | 0.11 | 63 | 1004.5 |